Location: Unspecified
(49.8670°N, 0.0000°E)
Time: 17:22:59
(UTC+00:00)

Courier 1B Rocket - All Passes

Search period start: 20 June 2019 00:00
Search period end: 30 June 2019 00:00
Orbit: 920 x 1202 km, 28.2° (Epoch: 19 June)

Date Brightness Start Highest point End Pass type
(mag) Time Alt. Az. Time Alt. Az. Time Alt. Az.
25 Jun - 04:34:59 10° S 04:36:07 10° S 04:37:16 10° SSE daylight
26 Jun - 03:34:42 10° S 03:35:31 10° S 03:36:19 10° SSE daylight
27 Jun - 04:25:08 10° SSW 04:26:53 11° S 04:28:35 10° S daylight
28 Jun - 03:24:03 10° SSW 03:26:14 11° S 03:28:24 10° SSE daylight
29 Jun - 02:23:31 10° S 02:25:35 11° S 02:27:39 10° SSE visible
29 Jun - 04:16:05 10° SSW 04:17:36 11° S 04:19:06 10° S daylight
